CFG2003 WMKP-WBKK

Flight info

Callsign CFG2003
Flight time 2h 27m
Altitude 39000
Route BOGUK DCT ANBIK DCT VPK M758 VIDIP EGENU2B
Aircraft A20N/M-SDE2E3FGHIRWXY/LB1

Departure

Time 2026-04-24 08:44
Airport Penang International Airport (WMKP)

Arrival

Time 2026-04-24 11:11
Airport Kota Kinabalu International Airport (WBKK)
Time Latitude Longitude Altitude Speed Heading
2026-04-24 08:14 5.29247 100.26677 22 ft 0 kts 311°
2026-04-24 08:31 5.29240 100.26685 24 ft 4 kts 313°
2026-04-24 08:31 5.29221 100.26705 24 ft 4 kts 316°
2026-04-24 08:32 5.29200 100.26723 27 ft 4 kts 325°
2026-04-24 08:32 5.29177 100.26735 22 ft 4 kts 355°
2026-04-24 08:32 5.29162 100.26732 22 ft 1 kts 42°
2026-04-24 08:32 5.29159 100.26730 22 ft 0 kts 42°
2026-04-24 08:35 5.29160 100.26731 22 ft 2 kts 42°
2026-04-24 08:36 5.29220 100.26785 25 ft 17 kts 42°
2026-04-24 08:36 5.29315 100.26870 22 ft 20 kts 41°
2026-04-24 08:36 5.29400 100.26969 22 ft 13 kts 94°
2026-04-24 08:36 5.29359 100.27020 23 ft 14 kts 128°
2026-04-24 08:37 5.29391 100.27118 24 ft 21 kts 25°
2026-04-24 08:37 5.29493 100.27225 22 ft 23 kts 44°
2026-04-24 08:37 5.29619 100.27338 23 ft 25 kts 41°
2026-04-24 08:37 5.29749 100.27454 22 ft 24 kts 43°
2026-04-24 08:38 5.29877 100.27571 22 ft 26 kts 41°
2026-04-24 08:38 5.30014 100.27696 22 ft 25 kts 44°
2026-04-24 08:38 5.30143 100.27822 22 ft 27 kts 45°
2026-04-24 08:38 5.30283 100.27959 22 ft 29 kts 45°
2026-04-24 08:39 5.30430 100.28105 22 ft 31 kts 45°
2026-04-24 08:39 5.30592 100.28255 23 ft 32 kts 41°
2026-04-24 08:39 5.30764 100.28410 22 ft 34 kts 42°
2026-04-24 08:39 5.30894 100.28536 22 ft 3 kts 67°
2026-04-24 08:40 5.30904 100.28562 24 ft 6 kts 70°
2026-04-24 08:40 5.30898 100.28609 25 ft 7 kts 117°
2026-04-24 08:40 5.30893 100.28616 23 ft 0 kts 124°
2026-04-24 08:42 5.30891 100.28619 25 ft 2 kts 124°
2026-04-24 08:42 5.30870 100.28649 27 ft 8 kts 126°
2026-04-24 08:42 5.30823 100.28681 19 ft 9 kts 193°
2026-04-24 08:42 5.30805 100.28670 24 ft 0 kts 218°
2026-04-24 08:43 5.30802 100.28667 24 ft 0 kts 218°
2026-04-24 08:43 5.30622 100.28503 25 ft 71 kts 223°
2026-04-24 08:43 5.30104 100.28029 30 ft 127 kts 222°
2026-04-24 08:43 5.29331 100.27345 114 ft 161 kts 223°
2026-04-24 08:44 5.28459 100.26629 668 ft 163 kts 218°
2026-04-24 08:44 5.27579 100.25893 1175 ft 170 kts 222°
2026-04-24 08:44 5.26577 100.25319 1698 ft 162 kts 186°
2026-04-24 08:44 5.25417 100.25537 2141 ft 183 kts 155°
2026-04-24 08:45 5.24207 100.26090 2596 ft 200 kts 156°
2026-04-24 08:45 5.22882 100.26665 3037 ft 222 kts 156°
2026-04-24 08:45 5.21395 100.27309 3533 ft 242 kts 156°
2026-04-24 08:45 5.19768 100.28009 4058 ft 265 kts 156°
2026-04-24 08:46 5.18032 100.28756 4792 ft 274 kts 156°
2026-04-24 08:46 5.16272 100.29520 5779 ft 277 kts 155°
2026-04-24 08:46 5.14523 100.30359 6712 ft 280 kts 144°
2026-04-24 08:46 5.13032 100.31573 7669 ft 280 kts 138°
2026-04-24 08:47 5.11552 100.32845 8631 ft 281 kts 138°
2026-04-24 08:47 5.10059 100.34144 9499 ft 287 kts 138°
2026-04-24 08:47 5.08534 100.35463 10282 ft 291 kts 138°
2026-04-24 08:47 5.06944 100.36837 10699 ft 313 kts 139°
2026-04-24 08:48 5.05236 100.38313 10958 ft 335 kts 139°
2026-04-24 08:48 5.03441 100.39861 11545 ft 342 kts 139°
2026-04-24 08:48 5.01616 100.41433 12248 ft 348 kts 139°
2026-04-24 08:48 4.99777 100.43023 13068 ft 349 kts 139°
2026-04-24 08:49 4.97919 100.44630 13742 ft 356 kts 139°
2026-04-24 08:49 4.96060 100.46235 14423 ft 358 kts 139°
2026-04-24 08:49 4.94163 100.47866 15062 ft 362 kts 139°
2026-04-24 08:49 4.92246 100.49517 15663 ft 366 kts 139°
2026-04-24 08:50 4.90311 100.51180 16323 ft 368 kts 139°
2026-04-24 08:50 4.88358 100.52862 16922 ft 372 kts 139°
2026-04-24 08:50 4.86386 100.54560 17526 ft 376 kts 139°
2026-04-24 08:50 4.84396 100.56281 18172 ft 378 kts 138°
2026-04-24 08:51 4.82385 100.58015 18673 ft 383 kts 139°
2026-04-24 08:51 4.80353 100.59760 19151 ft 386 kts 139°
2026-04-24 08:51 4.78310 100.61514 19655 ft 389 kts 139°
2026-04-24 08:51 4.76243 100.63291 20161 ft 392 kts 139°
2026-04-24 08:52 4.74192 100.65057 20646 ft 395 kts 139°
2026-04-24 08:52 4.72095 100.66859 21146 ft 398 kts 139°
2026-04-24 08:52 4.69980 100.68679 21641 ft 401 kts 139°
2026-04-24 08:52 4.68543 100.69914 21941 ft 403 kts 139°
2026-04-24 08:53 4.66437 100.71727 22413 ft 406 kts 139°
2026-04-24 08:53 4.64286 100.73580 22867 ft 409 kts 139°
2026-04-24 08:53 4.62118 100.75445 23351 ft 411 kts 139°
2026-04-24 08:53 4.59936 100.77322 23690 ft 415 kts 139°
2026-04-24 08:54 4.57743 100.79213 24102 ft 417 kts 139°
2026-04-24 08:54 4.55535 100.81118 24502 ft 419 kts 139°
2026-04-24 08:54 4.53313 100.83032 24828 ft 423 kts 139°
2026-04-24 08:54 4.51076 100.84952 25262 ft 424 kts 140°
2026-04-24 08:55 4.48836 100.86893 25609 ft 427 kts 137°
2026-04-24 08:55 4.46809 100.89083 25946 ft 430 kts 128°
2026-04-24 08:55 4.45127 100.91577 26319 ft 434 kts 120°
2026-04-24 08:55 4.43822 100.94310 26681 ft 436 kts 113°
2026-04-24 08:56 4.42644 100.97131 27024 ft 439 kts 113°
2026-04-24 08:56 4.41457 100.99973 27404 ft 443 kts 114°
2026-04-24 08:56 4.40255 101.02820 27782 ft 445 kts 114°
2026-04-24 08:56 4.39047 101.05689 28221 ft 448 kts 114°
2026-04-24 08:57 4.37844 101.08535 28524 ft 450 kts 114°
2026-04-24 08:57 4.36619 101.11429 28800 ft 451 kts 114°
2026-04-24 08:57 4.35389 101.14339 29098 ft 456 kts 114°
2026-04-24 08:57 4.34147 101.17264 29469 ft 457 kts 114°
2026-04-24 08:58 4.32905 101.20204 29755 ft 460 kts 114°
2026-04-24 08:58 4.31656 101.23169 30039 ft 462 kts 114°
2026-04-24 08:58 4.30404 101.26137 30327 ft 463 kts 114°
2026-04-24 08:58 4.29145 101.29118 30593 ft 465 kts 114°
2026-04-24 08:59 4.27879 101.32113 30906 ft 467 kts 114°
2026-04-24 08:59 4.26610 101.35118 31251 ft 467 kts 114°
2026-04-24 08:59 4.25344 101.38121 31661 ft 466 kts 114°
2026-04-24 08:59 4.24080 101.41104 32040 ft 465 kts 114°
2026-04-24 09:00 4.22822 101.44077 32365 ft 465 kts 114°
2026-04-24 09:00 4.21561 101.47061 32728 ft 463 kts 114°
2026-04-24 09:00 4.20324 101.49995 33092 ft 461 kts 114°
2026-04-24 09:00 4.19072 101.52956 33401 ft 462 kts 114°
2026-04-24 09:01 4.17818 101.55919 33679 ft 462 kts 114°
2026-04-24 09:01 4.16566 101.58877 34007 ft 460 kts 114°
2026-04-24 09:01 4.15314 101.61833 34234 ft 459 kts 114°
2026-04-24 09:01 4.14069 101.64779 34480 ft 460 kts 114°
2026-04-24 09:02 4.12824 101.67725 34770 ft 458 kts 114°
2026-04-24 09:02 4.11580 101.70669 35049 ft 457 kts 114°
2026-04-24 09:02 4.10352 101.73567 35323 ft 457 kts 114°
2026-04-24 09:02 4.09112 101.76493 35595 ft 456 kts 114°
2026-04-24 09:03 4.07874 101.79419 35847 ft 455 kts 114°
2026-04-24 09:03 4.06635 101.82349 36130 ft 454 kts 114°
2026-04-24 09:03 4.05400 101.85258 36402 ft 453 kts 114°
2026-04-24 09:03 4.04169 101.88161 36680 ft 452 kts 114°
2026-04-24 09:04 4.02955 101.91027 36925 ft 452 kts 114°
2026-04-24 09:04 4.01714 101.93946 37138 ft 451 kts 114°
2026-04-24 09:04 4.00499 101.96800 37384 ft 450 kts 114°
2026-04-24 09:04 3.99276 101.99684 37618 ft 450 kts 114°
2026-04-24 09:05 3.98057 102.02573 37844 ft 449 kts 114°
2026-04-24 09:05 3.96842 102.05451 38049 ft 449 kts 114°
2026-04-24 09:05 3.95621 102.08334 38187 ft 450 kts 114°
2026-04-24 09:05 3.94400 102.11219 38387 ft 450 kts 114°
2026-04-24 09:06 3.93181 102.14095 38572 ft 449 kts 114°
2026-04-24 09:06 3.91959 102.16977 38730 ft 448 kts 114°
2026-04-24 09:06 3.90754 102.19818 38770 ft 448 kts 114°
2026-04-24 09:07 3.88318 102.25562 38769 ft 447 kts 114°
2026-04-24 09:07 3.84670 102.34162 38768 ft 447 kts 114°
2026-04-24 09:08 3.82238 102.39895 38770 ft 447 kts 114°
2026-04-24 09:08 3.79803 102.45634 38767 ft 448 kts 114°
2026-04-24 09:09 3.77362 102.51385 38771 ft 449 kts 114°
2026-04-24 09:09 3.74937 102.57097 38773 ft 447 kts 114°
2026-04-24 09:10 3.72501 102.62831 38776 ft 448 kts 114°
2026-04-24 09:10 3.70066 102.68567 38780 ft 447 kts 114°
2026-04-24 09:11 3.67628 102.74303 38777 ft 448 kts 114°
2026-04-24 09:11 3.65199 102.80023 38774 ft 446 kts 116°
2026-04-24 09:12 3.62800 102.85779 38758 ft 454 kts 115°
2026-04-24 09:12 3.61558 102.88630 38782 ft 437 kts 115°
2026-04-24 09:12 3.60348 102.91436 38791 ft 441 kts 114°
2026-04-24 09:13 3.57924 102.97100 38786 ft 453 kts 117°
2026-04-24 09:13 3.55491 103.02844 38786 ft 441 kts 114°
2026-04-24 09:14 3.53133 103.08495 38786 ft 442 kts 114°
2026-04-24 09:14 3.50719 103.14172 38786 ft 448 kts 115°
2026-04-24 09:15 3.48277 103.19860 38793 ft 437 kts 115°
2026-04-24 09:15 3.45850 103.25476 38790 ft 445 kts 114°
2026-04-24 09:16 3.43416 103.31199 38789 ft 447 kts 114°
2026-04-24 09:16 3.41000 103.36931 38788 ft 447 kts 112°
2026-04-24 09:17 3.39399 103.42950 38802 ft 449 kts 100°
2026-04-24 09:17 3.39068 103.49202 38799 ft 452 kts 88°
2026-04-24 09:18 3.39349 103.55503 38799 ft 452 kts 89°
2026-04-24 09:18 3.39606 103.61798 38804 ft 453 kts 89°
2026-04-24 09:19 3.39865 103.68099 38810 ft 453 kts 89°
2026-04-24 09:19 3.40124 103.74369 38813 ft 454 kts 89°
2026-04-24 09:20 3.40385 103.80678 38819 ft 454 kts 89°
2026-04-24 09:20 3.40645 103.86996 38815 ft 453 kts 89°
2026-04-24 09:21 3.40903 103.93271 38812 ft 451 kts 89°
2026-04-24 09:21 3.41206 103.99555 38818 ft 452 kts 88°
2026-04-24 09:22 3.41528 104.05834 38821 ft 451 kts 88°
2026-04-24 09:22 3.41843 104.12111 38816 ft 452 kts 88°
2026-04-24 09:23 3.42160 104.18361 38816 ft 452 kts 88°
2026-04-24 09:23 3.42478 104.24645 38824 ft 451 kts 88°
2026-04-24 09:24 3.42796 104.30925 38825 ft 451 kts 88°
2026-04-24 09:24 3.43112 104.37203 38824 ft 451 kts 88°
2026-04-24 09:25 3.43426 104.43427 38819 ft 451 kts 88°
2026-04-24 09:25 3.43741 104.49699 38817 ft 450 kts 88°
2026-04-24 09:26 3.44058 104.55961 38815 ft 450 kts 88°
2026-04-24 09:26 3.44381 104.62219 38818 ft 450 kts 88°
2026-04-24 09:27 3.44704 104.68474 38818 ft 450 kts 88°
2026-04-24 09:27 3.45026 104.74735 38817 ft 450 kts 88°
2026-04-24 09:28 3.45345 104.80950 38814 ft 450 kts 88°
2026-04-24 09:28 3.45665 104.87207 38820 ft 449 kts 88°
2026-04-24 09:29 3.45985 104.93464 38817 ft 449 kts 88°
2026-04-24 09:29 3.46300 104.99634 38818 ft 445 kts 88°
2026-04-24 09:30 3.46617 105.05844 38816 ft 445 kts 88°
2026-04-24 09:30 3.46933 105.12039 38817 ft 445 kts 88°
2026-04-24 09:31 3.47247 105.18209 38820 ft 445 kts 88°
2026-04-24 09:31 3.47561 105.24416 38817 ft 446 kts 88°
2026-04-24 09:32 3.47872 105.30568 38817 ft 444 kts 87°
2026-04-24 09:32 3.48184 105.36725 38817 ft 442 kts 87°
2026-04-24 09:33 3.48496 105.42887 38814 ft 443 kts 87°
2026-04-24 09:33 3.48808 105.49068 38812 ft 443 kts 87°
2026-04-24 09:34 3.49118 105.55199 38823 ft 444 kts 87°
2026-04-24 09:34 3.49428 105.61367 38813 ft 445 kts 87°
2026-04-24 09:35 3.49739 105.67549 38816 ft 444 kts 87°
2026-04-24 09:35 3.50048 105.73705 38813 ft 442 kts 87°
2026-04-24 09:36 3.50357 105.79867 38821 ft 442 kts 87°
2026-04-24 09:36 3.50671 105.86025 38819 ft 442 kts 87°
2026-04-24 09:37 3.50988 105.92186 38821 ft 443 kts 87°
2026-04-24 09:37 3.51301 105.98299 38817 ft 442 kts 87°
2026-04-24 09:38 3.51616 106.04453 38817 ft 444 kts 88°
2026-04-24 09:38 3.51931 106.10631 38815 ft 443 kts 88°
2026-04-24 09:39 3.52193 106.15772 38815 ft 444 kts 88°
2026-04-24 09:39 3.52507 106.21960 38816 ft 445 kts 88°
2026-04-24 09:40 3.52821 106.28125 38817 ft 444 kts 88°
2026-04-24 09:40 3.53133 106.34271 38816 ft 444 kts 88°
2026-04-24 09:41 3.53450 106.40455 38825 ft 444 kts 88°
2026-04-24 09:41 3.53772 106.46629 38815 ft 443 kts 88°
2026-04-24 09:42 3.54091 106.52809 38824 ft 444 kts 88°
2026-04-24 09:42 3.54408 106.58944 38819 ft 445 kts 88°
2026-04-24 09:43 3.54727 106.65122 38821 ft 444 kts 88°
2026-04-24 09:43 3.55045 106.71308 38819 ft 444 kts 88°
2026-04-24 09:44 3.55363 106.77474 38817 ft 443 kts 88°
2026-04-24 09:44 3.55678 106.83615 38816 ft 443 kts 88°
2026-04-24 09:45 3.56008 106.89789 38821 ft 444 kts 86°
2026-04-24 09:45 3.56993 106.95884 38824 ft 445 kts 76°
2026-04-24 09:46 3.58580 107.01876 38823 ft 445 kts 76°
2026-04-24 09:46 3.60146 107.07862 38820 ft 445 kts 76°
2026-04-24 09:47 3.61706 107.13818 38821 ft 444 kts 76°
2026-04-24 09:47 3.63277 107.19811 38820 ft 444 kts 76°
2026-04-24 09:48 3.64848 107.25804 38820 ft 444 kts 76°
2026-04-24 09:48 3.66412 107.31769 38824 ft 440 kts 76°
2026-04-24 09:49 3.67971 107.37714 38817 ft 439 kts 74°
2026-04-24 09:49 3.69530 107.43625 38819 ft 443 kts 76°
2026-04-24 09:50 3.71087 107.49621 38819 ft 444 kts 76°
2026-04-24 09:50 3.72647 107.55595 38823 ft 443 kts 76°
2026-04-24 09:51 3.74206 107.61557 38817 ft 444 kts 76°
2026-04-24 09:51 3.75769 107.67531 38822 ft 443 kts 76°
2026-04-24 09:52 3.77320 107.73454 38816 ft 442 kts 76°
2026-04-24 09:52 3.78877 107.79410 38815 ft 442 kts 76°
2026-04-24 09:53 3.80434 107.85369 38820 ft 441 kts 76°
2026-04-24 09:53 3.81990 107.91322 38823 ft 441 kts 76°
2026-04-24 09:54 3.83537 107.97244 38817 ft 441 kts 76°
2026-04-24 09:54 3.85093 108.03203 38820 ft 442 kts 76°
2026-04-24 09:55 3.86651 108.09168 38818 ft 442 kts 76°
2026-04-24 09:55 3.88208 108.15137 38827 ft 442 kts 76°
2026-04-24 09:56 3.89759 108.21081 38818 ft 442 kts 76°
2026-04-24 09:56 3.91312 108.27035 38821 ft 443 kts 76°
2026-04-24 09:57 3.92864 108.32986 38827 ft 441 kts 76°
2026-04-24 09:57 3.94406 108.38902 38824 ft 442 kts 76°
2026-04-24 09:58 3.95959 108.44864 38823 ft 442 kts 76°
2026-04-24 09:58 3.97514 108.50830 38824 ft 442 kts 76°
2026-04-24 09:59 3.99068 108.56797 38826 ft 441 kts 76°
2026-04-24 09:59 4.00608 108.62717 38825 ft 442 kts 76°
2026-04-24 10:00 4.02160 108.68678 38835 ft 441 kts 76°
2026-04-24 10:00 4.03713 108.74633 38831 ft 441 kts 76°
2026-04-24 10:01 4.05277 108.80592 38826 ft 443 kts 76°
2026-04-24 10:01 4.06836 108.86534 38828 ft 443 kts 76°
2026-04-24 10:02 4.08399 108.92498 38826 ft 443 kts 76°
2026-04-24 10:02 4.09963 108.98469 38828 ft 443 kts 76°
2026-04-24 10:03 4.11525 109.04435 38824 ft 443 kts 76°
2026-04-24 10:03 4.13088 109.10403 38825 ft 443 kts 76°
2026-04-24 10:04 4.14641 109.16338 38831 ft 442 kts 76°
2026-04-24 10:04 4.16202 109.22308 38824 ft 443 kts 76°
2026-04-24 10:05 4.17766 109.28285 38831 ft 442 kts 76°
2026-04-24 10:05 4.19326 109.34256 38833 ft 443 kts 76°
2026-04-24 10:06 4.21670 109.43225 38829 ft 442 kts 76°
2026-04-24 10:07 4.23230 109.49196 38824 ft 443 kts 76°
2026-04-24 10:07 4.24788 109.55165 38827 ft 442 kts 76°
2026-04-24 10:08 4.26343 109.61141 38827 ft 442 kts 76°
2026-04-24 10:08 4.27867 109.67085 38829 ft 443 kts 76°
2026-04-24 10:09 4.29402 109.73073 38829 ft 443 kts 76°
2026-04-24 10:09 4.30936 109.79047 38824 ft 443 kts 76°
2026-04-24 10:10 4.32472 109.85034 38824 ft 445 kts 76°
2026-04-24 10:10 4.34012 109.91033 38827 ft 444 kts 76°
2026-04-24 10:11 4.35548 109.97020 38831 ft 443 kts 76°
2026-04-24 10:11 4.37080 110.02993 38826 ft 444 kts 76°
2026-04-24 10:12 4.38615 110.08982 38828 ft 443 kts 76°
2026-04-24 10:12 4.40153 110.14982 38829 ft 443 kts 76°
2026-04-24 10:13 4.41681 110.20948 38827 ft 444 kts 76°
2026-04-24 10:13 4.43220 110.26959 38832 ft 444 kts 76°
2026-04-24 10:14 4.44752 110.32941 38828 ft 444 kts 76°
2026-04-24 10:14 4.46285 110.38936 38827 ft 444 kts 76°
2026-04-24 10:15 4.47818 110.44927 38829 ft 444 kts 76°
2026-04-24 10:15 4.49351 110.50922 38827 ft 444 kts 76°
2026-04-24 10:16 4.50874 110.56878 38825 ft 443 kts 76°
2026-04-24 10:16 4.52404 110.62868 38830 ft 443 kts 76°
2026-04-24 10:17 4.53933 110.68856 38832 ft 443 kts 76°
2026-04-24 10:17 4.55465 110.74855 38830 ft 443 kts 76°
2026-04-24 10:18 4.56986 110.80812 38828 ft 443 kts 76°
2026-04-24 10:18 4.58515 110.86806 38828 ft 443 kts 76°
2026-04-24 10:19 4.60044 110.92800 38826 ft 443 kts 76°
2026-04-24 10:19 4.61572 110.98796 38828 ft 443 kts 76°
2026-04-24 10:20 4.63089 111.04747 38831 ft 444 kts 76°
2026-04-24 10:20 4.64617 111.10745 38830 ft 444 kts 76°
2026-04-24 10:21 4.66146 111.16746 38832 ft 444 kts 76°
2026-04-24 10:21 4.67675 111.22754 38829 ft 444 kts 76°
2026-04-24 10:22 4.69193 111.28718 38833 ft 445 kts 76°
2026-04-24 10:22 4.70723 111.34733 38832 ft 444 kts 76°
2026-04-24 10:23 4.72254 111.40754 38832 ft 444 kts 76°
2026-04-24 10:23 4.73779 111.46750 38830 ft 444 kts 76°
2026-04-24 10:24 4.75305 111.52757 38829 ft 444 kts 76°
2026-04-24 10:24 4.76822 111.58729 38833 ft 444 kts 76°
2026-04-24 10:25 4.78344 111.64727 38829 ft 444 kts 76°
2026-04-24 10:25 4.79869 111.70735 38829 ft 445 kts 76°
2026-04-24 10:26 4.81135 111.75726 38830 ft 444 kts 76°
2026-04-24 10:26 4.82657 111.81723 38836 ft 445 kts 76°
2026-04-24 10:27 4.84190 111.87755 38829 ft 445 kts 76°
2026-04-24 10:27 4.85752 111.93764 38831 ft 446 kts 76°
2026-04-24 10:28 4.87321 111.99792 38833 ft 445 kts 76°
2026-04-24 10:28 4.88879 112.05796 38833 ft 445 kts 76°
2026-04-24 10:29 4.90440 112.11819 38829 ft 446 kts 76°
2026-04-24 10:29 4.91999 112.17840 38836 ft 447 kts 75°
2026-04-24 10:30 4.93550 112.23827 38826 ft 446 kts 76°
2026-04-24 10:30 4.95118 112.29882 38833 ft 450 kts 76°
2026-04-24 10:31 4.96685 112.35939 38831 ft 448 kts 76°
2026-04-24 10:31 4.98247 112.41981 38836 ft 448 kts 76°
2026-04-24 10:32 4.99812 112.48033 38826 ft 448 kts 75°
2026-04-24 10:32 5.01380 112.54101 38829 ft 448 kts 76°
2026-04-24 10:33 5.02947 112.60165 38831 ft 449 kts 76°
2026-04-24 10:33 5.04514 112.66233 38841 ft 449 kts 76°
2026-04-24 10:34 5.06072 112.72268 38824 ft 448 kts 76°
2026-04-24 10:34 5.07634 112.78323 38836 ft 449 kts 76°
2026-04-24 10:35 5.09195 112.84373 38831 ft 448 kts 76°
2026-04-24 10:35 5.10756 112.90428 38823 ft 449 kts 76°
2026-04-24 10:36 5.12316 112.96480 38834 ft 448 kts 76°
2026-04-24 10:36 5.13879 113.02550 38824 ft 449 kts 76°
2026-04-24 10:37 5.15430 113.08571 38828 ft 448 kts 76°
2026-04-24 10:37 5.16987 113.14622 38829 ft 447 kts 76°
2026-04-24 10:38 5.18543 113.20668 38824 ft 447 kts 76°
2026-04-24 10:38 5.20099 113.26721 38826 ft 447 kts 76°
2026-04-24 10:39 5.21655 113.32771 38827 ft 447 kts 76°
2026-04-24 10:39 5.23208 113.38818 38824 ft 447 kts 76°
2026-04-24 10:40 5.24753 113.44829 38835 ft 448 kts 76°
2026-04-24 10:40 5.26307 113.50881 38824 ft 448 kts 76°
2026-04-24 10:41 5.27861 113.56938 38823 ft 448 kts 76°
2026-04-24 10:41 5.29414 113.62993 38823 ft 448 kts 76°
2026-04-24 10:42 5.30968 113.69055 38823 ft 448 kts 76°
2026-04-24 10:42 5.32521 113.75114 38823 ft 448 kts 76°
2026-04-24 10:43 5.34074 113.81173 38823 ft 452 kts 76°
2026-04-24 10:43 5.35634 113.87263 38391 ft 451 kts 76°
2026-04-24 10:43 5.36419 113.90314 37761 ft 452 kts 75°
2026-04-24 10:44 5.37230 113.93361 37141 ft 448 kts 77°
2026-04-24 10:44 5.37980 113.96367 36558 ft 451 kts 77°
2026-04-24 10:44 5.38756 113.99466 35966 ft 454 kts 77°
2026-04-24 10:44 5.39526 114.02501 35404 ft 456 kts 77°
2026-04-24 10:45 5.40317 114.05592 34838 ft 456 kts 77°
2026-04-24 10:45 5.41105 114.08676 34286 ft 456 kts 76°
2026-04-24 10:45 5.41903 114.11774 33737 ft 458 kts 77°
2026-04-24 10:45 5.42699 114.14881 33107 ft 458 kts 76°
2026-04-24 10:46 5.43488 114.17989 32497 ft 458 kts 77°
2026-04-24 10:46 5.44265 114.21053 31913 ft 458 kts 76°
2026-04-24 10:46 5.45051 114.24153 31334 ft 459 kts 76°
2026-04-24 10:46 5.45839 114.27259 30765 ft 459 kts 76°
2026-04-24 10:47 5.46628 114.30367 30202 ft 459 kts 76°
2026-04-24 10:47 5.47413 114.33462 29619 ft 457 kts 76°
2026-04-24 10:47 5.48195 114.36537 28984 ft 452 kts 76°
2026-04-24 10:47 5.48964 114.39569 28369 ft 445 kts 76°
2026-04-24 10:48 5.49727 114.42566 27779 ft 439 kts 76°
2026-04-24 10:48 5.50480 114.45520 27210 ft 435 kts 76°
2026-04-24 10:48 5.51226 114.48454 26657 ft 432 kts 76°
2026-04-24 10:48 5.51965 114.51373 26118 ft 429 kts 76°
2026-04-24 10:49 5.52694 114.54261 25595 ft 425 kts 76°
2026-04-24 10:49 5.53421 114.57136 25076 ft 423 kts 76°
2026-04-24 10:49 5.54144 114.59986 24582 ft 418 kts 76°
2026-04-24 10:49 5.54860 114.62805 24101 ft 414 kts 76°
2026-04-24 10:50 5.55565 114.65589 23626 ft 409 kts 76°
2026-04-24 10:50 5.56264 114.68349 23114 ft 408 kts 76°
2026-04-24 10:50 5.56963 114.71110 22557 ft 407 kts 76°
2026-04-24 10:50 5.57651 114.73802 22032 ft 401 kts 76°
2026-04-24 10:51 5.58338 114.76499 21503 ft 399 kts 76°
2026-04-24 10:51 5.59015 114.79186 20994 ft 395 kts 76°
2026-04-24 10:51 5.59684 114.81845 20497 ft 391 kts 76°
2026-04-24 10:51 5.60350 114.84489 20010 ft 390 kts 76°
2026-04-24 10:52 5.61014 114.87114 19534 ft 386 kts 76°
2026-04-24 10:52 5.61673 114.89720 19069 ft 383 kts 76°
2026-04-24 10:52 5.62326 114.92306 18615 ft 381 kts 76°
2026-04-24 10:52 5.62976 114.94866 18177 ft 377 kts 76°
2026-04-24 10:53 5.63621 114.97418 17678 ft 377 kts 76°
2026-04-24 10:53 5.64259 114.99957 17171 ft 372 kts 76°
2026-04-24 10:53 5.64890 115.02458 16674 ft 367 kts 76°
2026-04-24 10:53 5.65505 115.04897 16209 ft 362 kts 76°
2026-04-24 10:54 5.66121 115.07334 15756 ft 357 kts 76°
2026-04-24 10:54 5.66730 115.09745 15312 ft 359 kts 76°
2026-04-24 10:54 5.67349 115.12190 14868 ft 362 kts 76°
2026-04-24 10:54 5.67962 115.14640 14420 ft 360 kts 76°
2026-04-24 10:55 5.68574 115.17063 13996 ft 356 kts 76°
2026-04-24 10:55 5.69237 115.19444 13565 ft 351 kts 73°
2026-04-24 10:55 5.69953 115.21791 13094 ft 353 kts 73°
2026-04-24 10:55 5.70675 115.24123 12737 ft 344 kts 73°
2026-04-24 10:56 5.71367 115.26378 12435 ft 330 kts 73°
2026-04-24 10:56 5.72015 115.28528 12150 ft 321 kts 73°
2026-04-24 10:56 5.72651 115.30641 11880 ft 310 kts 73°
2026-04-24 10:56 5.73266 115.32687 11621 ft 303 kts 74°
2026-04-24 10:57 5.73863 115.34686 11361 ft 295 kts 74°
2026-04-24 10:57 5.74446 115.36638 11112 ft 288 kts 74°
2026-04-24 10:57 5.74908 115.38564 10875 ft 281 kts 82°
2026-04-24 10:57 5.75050 115.40547 10639 ft 285 kts 90°
2026-04-24 10:58 5.75064 115.42532 10408 ft 282 kts 89°
2026-04-24 10:58 5.75096 115.44491 10178 ft 279 kts 89°
2026-04-24 10:58 5.75131 115.46451 9953 ft 281 kts 89°
2026-04-24 10:58 5.75163 115.48405 9734 ft 278 kts 89°
2026-04-24 10:59 5.75198 115.50330 9487 ft 274 kts 89°
2026-04-24 10:59 5.75230 115.52261 9239 ft 278 kts 89°
2026-04-24 10:59 5.75258 115.54194 8999 ft 276 kts 89°
2026-04-24 10:59 5.75295 115.56118 8731 ft 277 kts 89°
2026-04-24 11:00 5.75324 115.58057 8365 ft 272 kts 90°
2026-04-24 11:00 5.75355 115.59927 8054 ft 274 kts 90°
2026-04-24 11:00 5.75384 115.61836 7737 ft 272 kts 90°
2026-04-24 11:00 5.75407 115.63725 7398 ft 269 kts 90°
2026-04-24 11:01 5.75434 115.65595 7054 ft 267 kts 90°
2026-04-24 11:01 5.75466 115.67455 6728 ft 265 kts 90°
2026-04-24 11:01 5.75488 115.69286 6397 ft 262 kts 91°
2026-04-24 11:01 5.75518 115.71127 6090 ft 266 kts 90°
2026-04-24 11:02 5.75550 115.72966 5748 ft 260 kts 91°
2026-04-24 11:02 5.75578 115.74793 5408 ft 261 kts 90°
2026-04-24 11:02 5.75609 115.76594 5085 ft 256 kts 91°
2026-04-24 11:02 5.75639 115.78390 4766 ft 262 kts 91°
2026-04-24 11:03 5.75666 115.80203 4447 ft 261 kts 91°
2026-04-24 11:03 5.75700 115.82006 4116 ft 255 kts 90°
2026-04-24 11:03 5.75731 115.83774 3787 ft 255 kts 93°
2026-04-24 11:03 5.75441 115.85548 3449 ft 261 kts 107°
2026-04-24 11:04 5.74762 115.87191 3135 ft 251 kts 113°
2026-04-24 11:04 5.74092 115.88791 2843 ft 244 kts 111°
2026-04-24 11:04 5.73480 115.90342 2755 ft 233 kts 109°
2026-04-24 11:04 5.72907 115.91765 2697 ft 216 kts 109°
2026-04-24 11:05 5.72353 115.93179 2697 ft 217 kts 110°
2026-04-24 11:05 5.72169 115.94665 2705 ft 215 kts 75°
2026-04-24 11:05 5.72912 115.95877 2693 ft 199 kts 41°
2026-04-24 11:05 5.74039 115.96690 2696 ft 198 kts 29°
2026-04-24 11:06 5.75250 115.97303 2749 ft 195 kts 25°
2026-04-24 11:06 5.76477 115.97812 2700 ft 189 kts 22°
2026-04-24 11:06 5.77676 115.98341 2699 ft 194 kts 24°
2026-04-24 11:06 5.78926 115.98852 2612 ft 190 kts 24°
2026-04-24 11:07 5.81343 115.99874 2205 ft 186 kts 22°
2026-04-24 11:07 5.82552 116.00385 1883 ft 187 kts 23°
2026-04-24 11:07 5.83719 116.00885 1650 ft 180 kts 22°
2026-04-24 11:08 5.84876 116.01372 1418 ft 173 kts 23°
2026-04-24 11:08 5.85930 116.01822 1198 ft 159 kts 23°
2026-04-24 11:08 5.86896 116.02230 1015 ft 147 kts 22°
2026-04-24 11:08 5.87773 116.02603 893 ft 130 kts 23°
2026-04-24 11:09 5.88593 116.02968 701 ft 127 kts 22°
2026-04-24 11:09 5.89411 116.03311 549 ft 129 kts 22°
2026-04-24 11:09 5.90238 116.03665 400 ft 129 kts 22°
2026-04-24 11:09 5.91065 116.04001 238 ft 128 kts 22°
2026-04-24 11:10 5.91887 116.04345 81 ft 126 kts 22°
2026-04-24 11:10 5.92664 116.04673 19 ft 106 kts 22°
2026-04-24 11:10 5.93169 116.04884 18 ft 62 kts 23°
2026-04-24 11:10 5.93542 116.05046 25 ft 56 kts 23°
2026-04-24 11:11 5.93844 116.05170 22 ft 37 kts 22°
2026-04-24 11:11 5.94058 116.05192 20 ft 31 kts
2026-04-24 11:11 5.94161 116.05194 20 ft 16 kts
2026-04-24 11:11 5.94271 116.05195 22 ft 16 kts 359°
2026-04-24 11:12 5.94333 116.05179 20 ft 9 kts 301°
2026-04-24 11:12 5.94352 116.05138 18 ft 0 kts 293°